Location: Birkenwerder
(52.6919°N, 13.2774°E)
Time: 15:36:05
(UTC+00:00)

STARLINK-60 - Pass Details

Date: 07 June 2020
Orbit: 382 x 390 km, 53.0° (Epoch: 09 July)

Event Time Altitude Azimuth Distance (km) Brightness Sun altitude
Rises 00:34:14 0° 284° (WNW) 2,275 6.7 -12.1°
Reaches altitude 10° 00:36:24 10° 275° (W) 1,421 5.6 -12.0°
Maximum altitude 00:39:17 33° 209° (SSW) 681 3.6 -11.8°
Drops below altitude 10° 00:42:12 10° 143° (SE) 1,424 5.4 -11.7°
Sets 00:44:22 0° 134° (SE) 2,280 6.6 -11.5°
